Simultaneous Nadir Overpasses (SNOs) Predictions

Prediction of SNOs between METOP-C and LANDSAT-8 Satellite Orbit:

Table of predicted SNOs for the next 14.0 days since TLE Epoch: 12/11/2021
Index Date (METOP-C) Time (METOP-C) Lat,Lon (METOP-C) SZA (METOP-C ) Date (LANDSAT-8) Time (LANDSAT-8) Lat,Lon (LANDSAT-8) SZA (LANDSAT-8 ) Distance(km) Time Diff (sec)
1 12/13/2021 04:13:12 -81.09, -24.05 73.75 12/13/2021 04:14:02 -81.08, -24.22 73.75 2.98 50
2 12/13/2021 05:03:52 81.11, 143.86 106.33 12/13/2021 05:03:27 81.11, 143.85 106.32 0.49 25
3 12/15/2021 23:47:35 -81.08, 42.23 73.65 12/15/2021 23:48:17 -81.08, 42.15 73.64 1.30 42
4 12/16/2021 00:38:14 81.10,-149.85 106.43 12/16/2021 00:37:41 81.11,-149.81 106.43 0.83 33
5 12/18/2021 19:21:57 -81.08, 108.49 73.60 12/18/2021 19:22:31 -81.07, 108.49 73.59 0.52 34
6 12/18/2021 20:12:37 81.10, -83.59 106.48 12/18/2021 20:11:56 81.10, -83.50 106.47 1.61 41
7 12/21/2021 14:56:19 -81.08, 175.11 73.58 12/21/2021 14:56:45 -81.09, 175.14 73.56 0.64 26
8 12/21/2021 15:46:59 81.11, -16.97 106.50 12/21/2021 15:46:10 81.11, -16.86 106.49 1.94 49
9 12/24/2021 10:30:42 -81.08,-118.65 73.66 12/24/2021 10:31:00 -81.07,-118.60 73.65 1.03 18



Historial Predications of SNOs between METOP-C and LANDSAT-8
